VIASAT-1 (37843 NORAD) Tracking and Keplerian Element Data

This shows tracking and keplerian element data for the satellite.

Feedback or suggestion? Click here.




ElementValue
Catalog37843
NameVIASAT-1
Epoch Orbit4552
Epoch Day353.50572193
Epoch Year2025
RAAN341.4309
Inclination0.0184
Eccentricity0.0001777
Argument of Perigee282.5902
Mean Anonmoly251.2672
Mean Motion1.00269326
Decay Rate1E-08
L11 37843U 11059A 25353.50572193 .00000001 00000+0 00000+0 0 9990
L22 37843 0.0184 341.4309 0001777 282.5902 251.2672 1.00269326 45524



Live tracking and technical data element details for VIASAT-1 (NORAD 37843). VIASAT-1 can be tracked NOW for your location showing map with azimuth and elevation plus other details from your city location.







IsCatalogInMostPopularTable: catalog: 37843, numindb: 442
Update: records affected: 1



GetName: 37843 VIASAT-1

Hit Count: updated at: Mon, 18 May 2026 10:11:23 GMT